Weather History for Hanford, CA

Change the Weather History Date:

Sunday, November 3, 2013

  Actual Average Record
Temperature  
Mean Temperature 58 °F 57 °F  
Max Temperature 67 °F 71 °F 81 °F (2010)
Min Temperature 49 °F 43 °F 37 °F (2011)
Degree Days  
Heating Degree Days 7    
Month to date heating degree days 18  
Since 1 July heating degree days 104  
Cooling Degree Days 0    
Month to date cooling degree days 0  
Year to date cooling degree days 2057  
Growing Degree Days 7 (Base 50)    
Moisture  
Dew Point 34 °F    
Average Humidity 49    
Maximum Humidity 71    
Minimum Humidity 26    
Precipitation  
Precipitation 0.00 in 0.05 in 0.19 in (2004)
Month to date precipitation 0.00 0.15  
Year to date precipitation 1.61 7.62  
Since 1 July precipitation 0.01 0.86  
Snow  
Snow 0.00 in - - ()
Month to date snowfall 0.0  
Since 1 July snowfall 0.0  
Since 1 September snowfall 0.0  
Snow Depth 0.00 in    
Sea Level Pressure  
Sea Level Pressure 29.94 in    
Wind  
Wind Speed 11 mph (NNW)    
Max Wind Speed 22 mph    
Max Gust Speed 27 mph    
Visibility 9 miles    
Events      
T = Trace of Precipitation, MM = Missing Value Source: NWS Daily Summary

Daily Weather History Graph

Daily Weather History Graph

Search for Another Location

Airport:

Trip Planner

Search our weather history database for the weather conditions in past years. The results will help you decide how hot, cold, wet, or windy it might be!

Date:

Astronomy

Nov. 03, 2013 Rise Set
Actual Time 6:23 AM PST 4:59 PM PST
Civil Twilight 5:57 AM PST 5:26 PM PST
Nautical Twilight 5:26 AM PST 5:57 PM PST
Astronomical Twilight 4:56 AM PST 6:27 PM PST
Moon 6:32 AM PST (11/3) 5:19 PM PST (11/3)
Length of Visible Light 11h 29m
Length of Day
10h 35m
Waxing Crescent, 0% of the Moon is Illuminated
Nov 3
Waxing Crescent
Nov 9
First Quarter
Nov 17
Full
Nov 25
Last Quarter
Dec 2
New

Hourly Weather History & Observations

Time (PST) Temp. Dew Point Humidity Pressure Visibility Wind Dir Wind Speed Gust Speed Precip Events Conditions
12:53 AM 48.0 °F 39.9 °F 74% 29.90 in 6.0 mi Calm Calm - N/A   Haze
1:53 AM 53.1 °F 42.1 °F 66% 29.91 in 7.0 mi NW 5.8 mph - N/A   Clear
1:53 AM 52.0 °F 42.1 °F 69% 29.91 in 7.0 mi NW 8.1 mph - N/A   Clear
2:53 AM 53.1 °F 45.0 °F 74% 29.91 in 9.0 mi NW 12.7 mph - N/A   Clear
3:53 AM 54.0 °F 44.1 °F 69% 29.91 in 10.0 mi NW 13.8 mph - N/A   Clear
4:53 AM 54.0 °F 37.9 °F 55% 29.93 in 10.0 mi NW 18.4 mph - N/A   Clear
5:53 AM 53.1 °F 34.0 °F 48% 29.95 in 10.0 mi NW 19.6 mph 26.5 mph N/A   Clear
6:53 AM 53.1 °F 33.1 °F 47% 29.97 in 10.0 mi NW 16.1 mph 25.3 mph N/A   Clear
7:53 AM 55.0 °F 32.0 °F 42% 30.00 in 7.0 mi NNW 15.0 mph 23.0 mph N/A   Clear
8:41 AM 55.9 °F 30.9 °F 39% 30.00 in 1.8 mi NNW 21.9 mph 26.5 mph N/A   Haze
8:53 AM 57.0 °F 30.9 °F 37% 30.01 in 3.0 mi NNW 19.6 mph 26.5 mph N/A   Haze
9:53 AM 59.0 °F 30.9 °F 35% 30.01 in 7.0 mi NNW 15.0 mph - N/A   Clear
10:53 AM 61.0 °F 32.0 °F 34% 30.00 in 8.0 mi North 6.9 mph 17.3 mph N/A   Clear
11:53 AM 64.0 °F 33.1 °F 31% 29.99 in 9.0 mi North 8.1 mph - N/A   Clear
12:53 PM 64.9 °F 33.1 °F 31% 29.96 in 10.0 mi NNW 10.4 mph - N/A   Clear
1:53 PM 66.9 °F 30.9 °F 26% 29.93 in 10.0 mi North 9.2 mph - N/A   Clear
2:53 PM 66.9 °F 30.0 °F 25% 29.92 in 10.0 mi North 6.9 mph - N/A   Clear
3:53 PM 66.0 °F 30.0 °F 26% 29.92 in 10.0 mi NW 10.4 mph - N/A   Clear
4:53 PM 62.1 °F 32.0 °F 32% 29.91 in 10.0 mi NNW 8.1 mph - N/A   Clear
5:53 PM 57.9 °F 33.1 °F 39% 29.91 in 10.0 mi NNW 4.6 mph - N/A   Clear
6:53 PM 57.9 °F 33.1 °F 39% 29.91 in 10.0 mi NW 10.4 mph - N/A   Clear
7:53 PM 57.0 °F 30.9 °F 37% 29.92 in 9.0 mi NW 11.5 mph - N/A   Clear
8:53 PM 55.0 °F 30.0 °F 38% 29.92 in 10.0 mi WNW 9.2 mph - N/A   Clear
9:53 PM 54.0 °F 28.9 °F 38% 29.94 in 10.0 mi NW 4.6 mph - N/A   Clear
10:53 PM 52.0 °F 28.9 °F 41% 29.91 in 10.0 mi NW 4.6 mph - N/A   Clear